Location: Capelle
(50.3413°N, 1.9974°E)
Time: 22:58:57
(UTC+00:00)

Cosmos 1331 Rocket - Pass Details

Date: 12 January 2026
Orbit: 745 x 773 km, 74.0° (Epoch: 7 February)

Event Time Altitude Azimuth Distance (km) Brightness Sun altitude
Rises 18:48:46 0° 206° (SSW) 3,177 7.6 -24.0°
Reaches altitude 10° 18:51:07 10° 207° (SSW) 2,256 6.8 -24.4°
Maximum altitude 18:56:13 80° 295° (WNW) 765 3.9 -25.2°
Enters shadow 18:57:26 53° 10° (N) 915 4.2 -25.4°
